Total_Precipitation_Accumulation
1.18 1.10 0.99 0.88 0.87 0.89 0.92 0.98 1.07 0.97 0.73 0.54 0.50 0.51 0.55 0.60 0.69 0.70 0.67 0.81 0.87 0.88 0.92 0.96 0.96 0.90 0.86 0.86 0.90 0.95 0.99 0.98 0.98 1.00 0.99 0.96 1.02 1.14
1.12 1.12 1.06 0.97 0.94 0.94 0.98 1.04 1.11 1.16 1.00 0.68 0.58 0.59 0.68 0.75 0.84 0.79 0.74 0.85 0.84 0.83 0.85 0.85 0.81 0.76 0.74 0.73 0.75 0.80 0.84 0.86 0.88 0.96 1.05 1.08 1.14 1.26
1.05 1.08 1.09 1.06 1.07 1.05 1.08 1.13 1.19 1.25 1.25 0.96 0.77 0.74 0.77 0.78 0.79 0.74 0.69 0.70 0.68 0.76 0.74 0.71 0.67 0.65 0.63 0.64 0.66 0.69 0.71 0.74 0.78 0.84 0.94 1.01 1.03 1.06
0.99 1.04 1.07 1.08 1.12 1.13 1.16 1.19 1.20 1.19 1.20 1.08 0.88 0.79 0.74 0.70 0.68 0.66 0.63 0.60 0.56 0.64 0.64 0.62 0.61 0.59 0.58 0.58 0.58 0.59 0.64 0.68 0.69 0.70 0.72 0.77 0.80 0.83
0.86 0.89 0.91 0.96 1.02 1.03 1.06 1.11 1.12 1.11 1.11 1.03 0.86 0.71 0.65 0.63 0.66 0.64 0.58 0.55 0.50 0.51 0.53 0.51 0.50 0.51 0.51 0.52 0.52 0.52 0.50 0.49 0.48 0.49 0.52 0.58 0.66 0.68
0.78 0.80 0.83 0.87 0.92 0.98 1.02 1.03 1.04 1.06 1.07 1.05 0.96 0.80 0.68 0.61 0.63 0.63 0.58 0.50 0.45 0.41 0.48 0.47 0.45 0.44 0.42 0.41 0.38 0.36 0.36 0.38 0.40 0.41 0.43 0.46 0.51 0.58
0.82 0.86 0.91 1.00 1.02 0.98 0.95 0.92 0.92 0.96 0.99 0.99 0.91 0.78 0.68 0.61 0.61 0.56 0.54 0.51 0.49 0.44 0.44 0.42 0.39 0.39 0.37 0.37 0.35 0.31 0.31 0.36 0.41 0.43 0.46 0.48 0.48 0.51
0.85 0.85 0.88 0.98 0.96 0.95 0.89 0.85 0.86 0.91 0.93 0.87 0.76 0.63 0.51 0.44 0.44 0.51 0.56 0.61 0.59 0.42 0.41 0.41 0.38 0.39 0.34 0.31 0.34 0.33 0.32 0.34 0.39 0.44 0.46 0.47 0.46 0.45
0.84 0.82 0.78 0.75 0.76 0.69 0.74 0.79 0.79 0.78 0.74 0.67 0.62 0.51 0.43 0.40 0.48 0.58 0.59 0.58 0.48 0.35 0.40 0.47 0.42 0.39 0.32 0.31 0.36 0.34 0.33 0.35 0.37 0.40 0.42 0.44 0.46 0.46
0.69 0.67 0.63 0.58 0.56 0.56 0.59 0.65 0.57 0.54 0.53 0.48 0.45 0.42 0.41 0.43 0.51 0.61 0.64 0.65 0.57 0.50 0.50 0.55 0.45 0.39 0.33 0.32 0.38 0.36 0.36 0.38 0.40 0.40 0.42 0.45 0.47 0.49
0.50 0.49 0.49 0.47 0.53 0.60 0.55 0.51 0.47 0.45 0.49 0.51 0.52 0.51 0.55 0.57 0.59 0.65 0.73 0.81 0.74 0.57 0.48 0.46 0.42 0.38 0.37 0.37 0.39 0.43 0.41 0.41 0.42 0.42 0.42 0.43 0.44 0.46
0.33 0.33 0.39 0.41 0.49 0.55 0.48 0.45 0.43 0.38 0.39 0.43 0.45 0.44 0.42 0.46 0.55 0.55 0.63 0.83 0.74 0.55 0.36 0.39 0.43 0.49 0.61 0.44 0.37 0.39 0.42 0.44 0.44 0.43 0.41 0.40 0.43 0.46
0.28 0.27 0.29 0.38 0.42 0.44 0.44 0.39 0.39 0.42 0.40 0.40 0.41 0.42 0.42 0.42 0.44 0.45 0.50 0.73 0.86 0.64 0.32 0.49 0.66 0.56 0.69 0.52 0.37 0.36 0.37 0.40 0.43 0.44 0.44 0.45 0.46 0.54
0.27 0.25 0.27 0.38 0.42 0.42 0.39 0.39 0.44 0.46 0.40 0.42 0.44 0.43 0.41 0.39 0.37 0.38 0.41 0.47 0.56 0.58 0.41 0.61 0.93 0.74 0.80 0.66 0.42 0.36 0.38 0.38 0.41 0.44 0.44 0.53 0.57 0.58
0.29 0.31 0.34 0.37 0.39 0.38 0.39 0.42 0.42 0.39 0.38 0.40 0.39 0.36 0.35 0.36 0.41 0.45 0.48 0.49 0.49 0.47 0.45 0.48 0.68 0.75 0.91 0.88 0.60 0.38 0.38 0.41 0.41 0.47 0.53 0.56 0.59 0.64
0.33 0.34 0.36 0.36 0.36 0.36 0.38 0.38 0.37 0.36 0.37 0.38 0.36 0.35 0.38 0.44 0.47 0.49 0.53 0.52 0.55 0.50 0.45 0.42 0.48 0.72 0.90 0.72 0.70 0.58 0.46 0.50 0.46 0.52 0.58 0.57 0.54 0.60
0.40 0.38 0.36 0.34 0.32 0.32 0.32 0.32 0.33 0.35 0.37 0.36 0.39 0.41 0.42 0.44 0.44 0.45 0.51 0.56 0.56 0.47 0.42 0.40 0.42 0.50 0.64 0.68 0.69 0.54 0.49 0.54 0.57 0.65 0.72 0.70 0.57 0.58
0.48 0.41 0.33 0.29 0.28 0.29 0.30 0.32 0.32 0.33 0.35 0.37 0.40 0.44 0.47 0.48 0.46 0.44 0.48 0.55 0.54 0.45 0.41 0.40 0.45 0.55 0.55 0.52 0.52 0.54 0.56 0.60 0.59 0.62 0.72 0.87 0.71 0.57
0.42 0.34 0.29 0.28 0.28 0.30 0.32 0.34 0.34 0.32 0.36 0.41 0.44 0.48 0.52 0.52 0.51 0.50 0.50 0.52 0.51 0.46 0.43 0.44 0.54 0.79 0.83 0.53 0.35 0.41 0.61 0.68 0.65 0.69 0.75 0.92 0.97 0.72
0.30 0.25 0.24 0.26 0.30 0.33 0.35 0.38 0.38 0.38 0.40 0.41 0.44 0.49 0.55 0.58 0.56 0.52 0.52 0.54 0.55 0.51 0.46 0.43 0.49 0.75 1.05 0.86 0.59 0.37 0.41 0.63 0.88 0.97 0.82 0.72 0.73 0.67
0.21 0.20 0.23 0.28 0.32 0.36 0.38 0.41 0.44 0.46 0.45 0.49 0.50 0.51 0.56 0.64 0.60 0.52 0.53 0.52 0.55 0.55 0.52 0.42 0.39 0.49 0.76 0.99 0.82 0.46 0.40 0.47 0.73 1.07 1.09 0.99 0.78 0.62
0.23 0.24 0.26 0.30 0.35 0.39 0.42 0.45 0.48 0.48 0.50 0.54 0.55 0.56 0.57 0.64 0.64 0.58 0.57 0.58 0.54 0.52 0.51 0.46 0.46 0.54 0.71 0.94 0.76 0.47 0.41 0.43 0.49 0.56 0.79 1.23 1.59 1.47
0.30 0.31 0.31 0.35 0.40 0.44 0.47 0.48 0.47 0.45 0.47 0.54 0.55 0.55 0.59 0.61 0.57 0.59 0.59 0.62 0.65 0.61 0.58 0.57 0.54 0.55 0.58 0.63 0.66 0.54 0.44 0.41 0.42 0.46 0.53 0.62 0.83 1.05